This demonstration page uses our WeatherBlox Daily Observations layout. Learn more.

Left ArrowRight Arrow

34.74481, -87.66753

Hourly Observations for July 21, 2016

Temp ( °F °C ) Dew Point ( °F °C ) Humidity (%) Winds ( mph kmh ) Pressure ( in mb ) Visibility ( mi km ) Precip ( " mm )
12:53 am 00:53 Clear 78 25.6 73 22.8 85 85 N 3 6 30.12 1020 10 16 0.00 0.00
1:53 am 01:53 Clear 77 25 72 22.2 85 85 Calm 30.11 1020 10 16 0.00 0.00
2:53 am 02:53 Clear 76 24.4 72 22.2 88 88 Calm 30.11 1020 10 16 0.00 0.00
3:53 am 03:53 Clear 76 24.4 72 22.2 88 88 Calm 30.09 1019 8 13 0.00 0.00
4:53 am 04:53 Clear 75 23.9 72 22.2 90 90 Calm 30.11 1020 8 13 0.00 0.00
5:53 am 05:53 Sunny with Mist and Fog 74 23.3 71 21.7 91 91 Calm 30.13 1020 6 10 0.00 0.00
6:53 am 06:53 Sunny 77 25 73 22.8 88 88 Calm 30.14 1021 7 11 0.00 0.00
7:53 am 07:53 Sunny 79 26.1 73 22.8 82 82 Calm 30.15 1021 8 13 0.00 0.00
8:53 am 08:53 Sunny 83 28.3 74 23.3 74 74 Calm 30.16 1021 10 16 0.00 0.00
9:53 am 09:53 Sunny 89 31.7 76 24.4 65 65 Calm 30.15 1021 10 16 0.00 0.00
10:53 am 10:53 Sunny 91 32.8 71 21.7 52 52 Calm 30.15 1021 10 16 0.00 0.00
11:53 am 11:53 Sunny 94 34.4 70 21.1 46 46 Calm 30.13 1020 10 16 0.00 0.00
12:53 pm 12:53 Sunny 97 36.1 66 18.9 36 36 Calm 30.11 1020 10 16 0.00 0.00
1:53 pm 13:53 Sunny 96 35.6 70 21.1 43 43 WNW 5 7 30.10 1019 10 16 0.00 0.00
2:42 pm 14:42 Sunny with Thunderstorms 95 35 71 21.7 46 46 NW 3 6 30.06 1018 10 16 0.00 0.00
2:53 pm 14:53 Sunny 92 33.3 73 22.8 54 54 NW 12 19 30.09 1019 10 16 0.00 0.00
3:05 pm 15:05 Sunny with Nearby Thunderstorms 91 32.8 74 23.3 57 57 WNW 9 15 30.06 1018 10 16 0.00 0.00
3:22 pm 15:22 Sunny 91 32.8 71 21.7 52 52 W 6 9 30.03 1017 10 16 0.00 0.00
3:49 pm 15:49 Sunny with Nearby Thunderstorms 90 32 73 23 59 59 NW 9 15 30.03 1017 10 16 0.00 0.00
3:53 pm 15:53 Sunny with Nearby Thunderstorms 90 32.2 73 22.8 58 58 NW 7 11 30.06 1018 10 16 0.00 0.00
4:06 pm 16:06 Sunny 90 32.2 73 22.8 58 58 NNW 5 7 30.03 1017 10 16 0.00 0.00
4:13 pm 16:13 Sunny with Nearby Thunderstorms 93 33.9 74 23.3 54 54 NNW 5 7 30.00 1016 10 16 0.00 0.00
4:28 pm 16:28 Sunny 96 35.6 74 23.3 49 49 NW 6 9 30.00 1016 10 16 0.00 0.00
4:53 pm 16:53 Sunny 96 35.6 71 21.7 44 44 NNW 6 9 30.04 1017 10 16 0.00 0.00
5:53 pm 17:53 Sunny 92 33.3 72 22.2 52 52 W 13 20 30.03 1017 10 16 0.00 0.00
6:53 pm 18:53 Sunny 90 32.2 71 21.7 54 54 WSW 7 11 30.04 1017 10 16 0.00 0.00
7:53 pm 19:53 Mostly Sunny 87 30.6 72 22.2 61 61 SW 5 7 30.06 1018 10 16 0.00 0.00
8:53 pm 20:53 Mostly Cloudy 85 29.4 71 21.7 63 63 ESE 15 24 30.07 1018 10 16 0.00 0.00
9:24 pm 21:24 Cloudy with Strong Thunderstorms 81 27.2 71 21.7 72 72 S 14 22 30.09 1019 5 8 0.08 2.03
9:49 pm 21:49 Cloudy with Nearby Thunderstorms 81 27 72 22 74 74 S 9 15 30.09 1019 10 16 0.08 2.03
9:53 pm 21:53 Cloudy with Thunderstorms 79 26.1 72 22.2 79 79 S 6 9 30.09 1019 10 16 0.08 2.03
10:14 pm 22:14 Mostly Clear 80 26.7 71 21.7 74 74 WSW 6 9 30.09 1019 10 16 0.00 0.00
11:53 pm 23:53 Clear 75 23.9 71 21.7 88 88 Calm 30.07 1018 10 16 0.00 0.00

Powered by AerisWeather